Flag for Poland Weather past 2 weeks in Grudziądz, Poland

Now
65 °F

Scattered clouds.


Feels Like: 65 °F
Forecast: 43 / 63 °F
Wind: 2 mph from East

Location: Torun

Current Time: Oct 2, 2014 at 4:11:14 PM

Latest Report: Oct 2, 2014 at 3:00 PM


Visibility: 6 mi

Pressure: 30.42 "Hg

Humidity: 53%

Dew point: 47 °F

Location of GrudziądzLocation

Historic Weather in Grudziądz — Graph

°F

Grudziądz temperature yesterday

Maximum temperature yesterday: 58 °F (at 2:00 PM)
Minimum temperature yesterday: 53 °F (at 10:00 PM)
Average temperature yesterday: 56 °F

Past Weeks' High & Low Weather Summary

 TemperatureHumidityPressure
High74 °F (Sep 20, 2:00 PM)98% (Sep 20, 8:00 AM)30.43 "Hg (Sep 20, 8:00 AM)
Low32 °F (Sep 24, 7:00 AM)34% (Sep 18, 2:00 PM)29.67 "Hg (Sep 22, 5:00 AM)
Average55 °F80%30.07 "Hg
* Reported Sep 17 2:00 PM — Oct 2 2:00 PM, Grudziądz, Weather by CustomWeather, © 2014

Note: Actual official high and low records may vary slightly from our data, if they occured in-between our weather recording intervals... More about our weather records

Advertising

Grudziądz weather history for previous 24 hours

 ConditionsComfort  
Time TempWeatherWind HumidityBarometerVisibility
2:00 PM
Oct 2
64 °FScattered clouds.2 mph55%30.42 "Hg17 mi
1:00 PM63 °FScattered clouds.2 mph55%30.42 "Hg15 mi
12:00 PM62 °FScattered clouds.2 mph59%30.42 "Hg16 mi
11:00 AM60 °FScattered clouds.1 mph64%30.42 "Hg11 mi
10:00 AM57 °FScattered clouds.1 mph66%30.43 "Hg16 mi
9:00 AM53 °FScattered clouds.2 mph76%30.42 "Hg8 mi
8:00 AM47 °FScattered clouds.1 mph91%30.42 "Hg6 mi
7:00 AM45 °FPartly sunny.No wind91%30.41 "Hg9 mi
6:00 AM44 °FPassing clouds.No wind90%30.40 "Hg7 mi
5:00 AM46 °FPassing clouds.1 mph85%30.40 "Hg8 mi
4:00 AM49 °FPassing clouds.2 mph77%30.39 "Hg12 mi
3:00 AM49 °FOvercast.1 mph78%30.40 "Hg17 mi
2:00 AM50 °FPassing clouds.1 mph77%30.39 "Hg11 mi
1:00 AM53 °FOvercast.2 mph73%30.39 "Hg14 mi
12:00 AM54 °FOvercast.2 mph72%30.38 "Hg13 mi
11:00 PM
Oct 1
53 °FOvercast.1 mph83%30.38 "Hg10 mi
10:00 PM53 °FOvercast.1 mph84%30.39 "Hg9 mi
9:00 PM53 °FOvercast.1 mph81%30.38 "Hg11 mi
8:00 PM55 °FOvercast.1 mph74%30.38 "Hg19 mi
7:00 PM55 °FOvercast.2 mph71%30.37 "Hg17 mi
6:00 PM56 °FPartly sunny.3 mph74%30.36 "Hg9 mi
5:00 PM57 °FOvercast.3 mph75%30.36 "Hg22 mi
4:00 PM58 °FOvercast.5 mph76%30.35 "Hg16 mi
Weather by CustomWeather, © 2014

See weather overviewHow to use our weather pages